Flag for Germany Weather past 2 weeks in Ludwigsfelde, Brandenburg, Germany

Now
37 °F

Passing clouds.


Feels Like: 34 °F
Forecast: 39 / 61 °F
Wind: 3 mph from Northwest

Location: Potsdam

Current Time: Apr 19, 2015 at 5:59:58 AM

Latest Report: Apr 19, 2015 at 5:00 AM


Visibility: 22 mi

Pressure: 30.20 "Hg

Humidity: 76%

Dew point: 30 °F

Location of LudwigsfeldeLocation

Historic Weather in Ludwigsfelde — Graph

°F

Ludwigsfelde temperature yesterday

Maximum temperature yesterday: 54 °F (at 5:00 PM)
Minimum temperature yesterday: 33 °F (at 7:00 AM)
Average temperature yesterday: 44 °F

Past Weeks' High & Low Weather Summary

 TemperatureHumidityPressure
High73 °F (Apr 11, 3:00 PM)100% (Apr 7, 5:00 AM)30.57 "Hg (Apr 7, 5:00 AM)
Low29 °F (Apr 4, 7:00 AM)26% (Apr 5, 5:00 PM)29.83 "Hg (Apr 15, 7:00 PM)
Average48 °F63%30.21 "Hg
* Reported Apr 4 4:00 AM — Apr 19 4:00 AM, Ludwigsfelde, Weather by CustomWeather, © 2015

Note: Actual official high and low records may vary slightly from our data, if they occured in-between our weather recording intervals... More about our weather records

Advertising

Ludwigsfelde weather history for previous 24 hours

 ConditionsComfort  
Time TempWeatherWind HumidityBarometerVisibility
4:00 AM
Sun, Apr 19
38 °FPassing clouds.3 mph77%30.20 "Hg22 mi
3:00 AM38 °FPassing clouds.3 mph78%30.21 "Hg22 mi
2:00 AM39 °FPassing clouds.3 mph83%30.22 "Hg25 mi
1:00 AM41 °FPassing clouds.1 mph67%30.22 "Hg25 mi
12:00 AM42 °FPassing clouds.1 mph65%30.22 "Hg28 mi
11:00 PM
Sat, Apr 18
42 °FPassing clouds.2 mph64%30.23 "Hg28 mi
10:00 PM44 °FPassing clouds.3 mph57%30.23 "Hg28 mi
9:00 PM46 °FPassing clouds.3 mph54%30.23 "Hg28 mi
8:00 PM49 °FPassing clouds.3 mph45%30.22 "Hg31 mi
7:00 PM51 °FPassing clouds.5 mph41%30.22 "Hg28 mi
6:00 PM53 °FScattered clouds.6 mph35%30.22 "Hg28 mi
5:00 PM54 °FScattered clouds.6 mph34%30.24 "Hg28 mi
4:00 PM53 °FPartly sunny.3 mph37%30.25 "Hg25 mi
3:00 PM51 °FPartly sunny.5 mph43%30.27 "Hg25 mi
2:00 PM49 °FPartly sunny.6 mph47%30.27 "Hg25 mi
1:00 PM51 °FPartly sunny.6 mph45%30.28 "Hg25 mi
12:00 PM47 °FOvercast.5 mph59%30.29 "Hg22 mi
11:00 AM46 °FPartly sunny.5 mph64%30.29 "Hg19 mi
10:00 AM44 °FPartly sunny.5 mph77%30.29 "Hg16 mi
9:00 AM40 °FPassing clouds.2 mph89%30.28 "Hg12 mi
8:00 AM35 °FPassing clouds.2 mph100%30.27 "Hg12 mi
7:00 AM33 °FPassing clouds.2 mph100%30.25 "Hg11 mi
6:00 AM34 °FPassing clouds.3 mph100%30.24 "Hg19 mi
5:00 AM34 °FClear.3 mph100%30.22 "Hg31 mi
Weather by CustomWeather, © 2015

See weather overviewHow to use our weather pages